Weather in Yeltsovka

Russia / Altai Krai     53°03′34″N   85°07′58″E
temp.,
°C
wind,
m/s
gust,
m/s
humid.,
%
clouds,
%
prec.,
mm/h
press.,
hPa
HPBL,
m
26 february, fri
fri2601:00−20sw5159699 0.2 10271481
04:00−21wsw82094100 0.1 10281879
07:00−22wsw91792100 0.3 10311493
10:00−23wsw101789100 0.2 10331460
13:00−21wsw101689100 0.3 10351514
16:00−20wsw101682100 0.1 10351257
19:00−21wsw71491100 0.1 1037876
22:00−22wsw61492100 0.0 1039665
27 february, sat
sat2701:00−23sw31398100 0.1 1039830
04:00−23sw41098100 0.2 1039594
07:00−23sw4997100 0.3 1039438
10:00−23sw5895100 0.1 1039453
13:00−20sw5990100 0.1 1039845
16:00−18sw5888100 0.1 1038981
19:00−20sw3396100 0.1 103958
22:00−24ssw349795 0.0 104037
28 february, sun
sun2801:00−24ssw239891 0.0 104021
04:00−23s3398100 0.0 104047
07:00−23sse3495100 0.1 104055
10:00−21sse469369 0.0 1038125
13:00−16se458448 0.0 1035186
16:00−13se4685100 0.0 1032224
19:00−12se4685100 0.0 1030132
22:00−10ese4785100 0.0 1028150
1 march, mon
mon101:00−10se4788100 0.1 1024185
04:00−9sse5895100 0.7 1021266
07:00−8sse51095100 2.3 1019321
10:00−6s61495100 1.4 1016774
13:00−3sw101795100 3.6 10141237
16:00−2wsw111792100 2.5 10141040
19:00−3wsw91787100 2.6 1014880
22:00−3wsw91790100 0.1 1014867
2 march, tue
tue201:00−3sw81596100 0.9 1013922
04:00−3sw101895100 2.1 1012959
07:00−3sw101986100 2.5 1012969
10:00−3wsw101693100 0.6 10131144
13:00−3wsw91592100 1.1 10151165
16:00−3wsw81491100 0.3 10161093
19:00−6w4109598 0.4 1016496
22:00−9w359698 0.1 1016120